Lid_Strength_Index
1 3 3 4 8 7 8 7 5 6 5 4 4 4 5 4 6 9 1 0 -0 -0 -1 -1 -1 -1 -1 -1 -1 -1 -1 -1 -1 -1 -1 -1 -1 -1 -1 -1 -1 -1 -1 -1 -1 -1 -1 -1 -1
3 3 4 6 9 10 9 6 7 5 4 3 4 4 4 6 3 3 2 0 -0 -0 -1 -1 -1 -1 -1 -1 -1 -1 -1 -1 -1 -1 -1 -1 -1 -1 -1 -1 -1 -1 -1 -1 -1 -1 -1 -1 -1
3 3 5 7 9 10 9 6 5 5 4 4 4 3 4 5 3 2 0 -0 -0 -0 -1 -1 -1 -0 -1 -1 -1 -1 -1 -1 -1 -1 -1 -1 -1 -1 -1 -1 -1 -1 -1 -1 -1 -1 -1 -1 -1
4 4 5 8 8 7 6 5 5 5 4 4 4 5 3 2 2 1 0 -0 -0 -0 -1 -1 -1 -1 -1 -1 -1 -1 -1 -1 -1 -1 -1 -1 -1 -1 -1 -1 -1 -1 -1 -2 -2 -2 -2 -1 -1
4 5 8 8 7 6 6 5 6 6 5 5 4 5 4 2 1 0 0 -0 0 -0 -1 -1 -1 -1 -1 -1 -1 -1 -1 -1 -1 -1 -1 -1 -1 -1 -1 -1 -1 -1 -2 -2 -2 -2 -2 -2 -2
6 5 9 9 8 6 6 5 5 6 6 6 5 5 4 1 1 1 0 0 -0 -0 -1 -1 -1 -1 -1 -1 -1 -1 -1 -1 -1 -1 -1 -1 -1 -1 -1 -1 -1 -1 -2 -2 -2 -2 -2 -2 -2
7 8 8 8 7 6 6 5 5 5 5 6 6 7 4 3 1 1 0 -0 -0 -0 -0 -1 -1 -1 -1 -1 -1 -1 -1 -1 -1 -1 -1 -1 -1 -1 -1 -1 -1 -1 -1 -2 -2 -2 -2 -2 -2
6 7 9 8 8 7 5 5 5 6 6 4 5 6 5 4 3 0 0 0 0 -0 -0 -0 -1 -1 -1 -1 -1 -1 -1 -1 -1 -1 -1 -1 -1 -1 -1 -1 -1 -1 -1 -1 -2 -2 -2 -2 -2
6 9 9 9 8 6 5 6 4 4 6 5 5 5 4 3 3 3 1 1 1 0 -0 -0 -0 -1 -1 -1 -1 -1 -1 -1 -1 -1 -1 -1 -1 -1 -1 -2 -2 -1 -1 -1 -2 -2 -2 -2 -2
7 10 9 7 7 7 6 5 5 5 6 6 5 4 4 4 3 4 3 2 1 1 0 -0 -1 -1 -1 -1 -1 -1 -1 -1 -1 -1 -1 -1 -2 -2 -2 -2 -1 -1 -1 -1 -2 -2 -2 -1 -2
5 8 6 5 5 6 6 6 6 7 7 5 6 5 4 4 3 3 3 3 1 1 0 -0 -1 -1 -1 -0 -1 -1 -1 -1 -1 -2 -2 -2 -1 -2 -1 -1 -1 -2 -1 -1 -1 -1 -1 -2 -1
6 5 5 5 4 5 6 5 6 6 5 4 4 4 4 4 4 3 2 2 1 1 0 -0 -0 -0 -1 -0 -0 -1 -0 -1 -1 -1 -2 -1 -0 -1 -1 -1 -1 -2 -1 -2 -2 -1 -2 -2 -2
6 5 5 4 4 5 5 6 5 5 5 4 3 3 3 4 4 3 2 2 1 1 0 0 -0 -0 -0 -0 -0 -0 -0 -0 -1 -1 -2 -1 -0 -1 -1 -1 -1 -1 -1 -1 -1 -1 -1 -1 -1
5 5 5 5 5 5 6 6 6 5 4 4 3 3 3 3 2 1 1 1 1 0 0 -0 -0 -0 -0 0 -0 -0 -0 -1 -1 -1 -1 -1 -1 -1 -0 -0 -1 -1 -1 -1 -1 -1 -1 -1 -1
5 7 6 6 5 6 5 7 6 4 4 4 4 3 3 2 2 2 1 1 0 0 -0 -0 -0 -0 -0 -0 -0 -0 -0 -0 -0 -0 -1 -1 -1 -1 -1 -0 -0 -1 -2 -2 -2 -1 -1 -1 -1
7 7 9 6 5 6 6 9 5 4 5 5 4 4 4 3 2 1 1 0 -0 -0 -0 -0 -0 -0 -0 -0 -0 -0 -0 -0 -0 -0 -1 -1 -1 -1 -0 -0 -0 -1 -1 -1 -0 -0 0 -0 -0
7 9 8 7 5 6 7 8 5 5 4 5 4 4 4 3 2 1 1 0 -0 -0 -0 -0 -1 -0 -0 -0 0 -0 -0 -0 -0 -0 -0 -1 -1 -1 -0 -0 -0 -1 -0 -0 -0 -0 -0 0 0
9 9 8 8 6 6 7 7 5 4 4 4 4 4 4 3 3 2 1 0 -0 -1 -1 -1 -0 -0 -0 0 0 0 0 0 0 -0 -0 -0 -0 -1 -0 -0 -0 -0 0 0 0 0 -0 0 0
7 8 8 7 6 7 7 7 6 4 4 4 4 4 3 3 2 1 1 1 0 -0 -1 -1 -0 -1 -0 1 1 1 2 1 1 0 -0 -0 -0 -0 -0 0 0 0 1 0 0 1 1 1 0
7 8 8 7 6 6 7 7 6 5 5 4 4 4 3 3 2 2 1 1 0 0 0 -0 -0 -1 -0 0 1 1 1 1 0 0 -0 -0 -0 -0 0 0 0 0 1 1 1 1 2 1 1
7 8 8 8 6 6 7 8 7 5 4 4 4 3 3 3 3 2 2 1 1 1 0 0 -0 -1 -1 -1 0 0 0 1 1 1 1 0 -0 -0 -0 -0 0 0 0 1 1 1 1 3 1
9 6 7 8 9 11 7 12 8 6 6 5 4 4 3 3 3 2 2 1 1 1 0 0 -0 -0 -0 -1 0 1 2 2 1 1 1 0 -0 0 -0 -0 0 0 0 0 1 0 1 1 2
8 6 7 8 8 9 9 10 9 6 7 6 5 4 4 4 4 3 3 2 2 1 0 0 -0 -0 -0 -0 -0 1 1 1 1 1 1 1 0 -0 0 -0 0 0 0 0 0 1 1 1 2
6 7 7 7 8 12 10 10 10 8 7 6 5 5 5 5 4 3 3 2 2 1 1 0 0 0 -0 -0 0 1 2 1 2 1 1 1 1 0 0 0 0 0 0 0 0 0 1 1 1
7 9 12 13 13 14 9 10 9 7 6 6 5 5 5 4 4 4 4 3 3 2 1 1 0 1 0 0 0 1 1 1 2 2 2 1 2 1 1 0 1 1 0 0 0 0 1 1 1
8 8 13 18 16 13 9 12 10 6 5 5 4 5 5 4 4 4 4 3 3 2 1 1 1 1 0 1 1 0 0 1 1 1 1 1 1 1 0 1 0 0 0 0 0 1 1 1 1
8 10 8 12 11 14 12 9 7 6 6 6 6 6 5 5 5 4 3 3 2 2 1 1 1 1 1 1 1 1 1 1 1 1 1 1 1 1 1 1 1 1 2 1 1 1 1 1 1
8 7 12 12 19 18 13 12 12 8 7 6 7 6 5 5 4 4 3 2 2 1 1 0 1 1 1 1 1 1 1 1 1 1 1 1 1 1 1 1 1 2 4 3 1 1 1 1 1
9 10 9 10 12 17 18 14 7 8 6 6 6 5 5 4 4 3 2 2 1 1 1 1 1 1 1 1 1 1 1 1 0 1 1 1 1 1 1 1 1 1 3 1 1 1 1 1 1
7 9 9 15 16 13 15 15 6 6 6 6 6 5 4 3 3 2 2 2 2 1 1 1 1 2 1 1 1 2 2 1 1 1 1 1 1 1 1 1 1 1 1 1 1 1 0 1 1